Regional Weather Roundup
Issued by NWS

Home | Current Version | Previous Version | Graphics & Text | Print | Product List | Glossary On
Versions: 1 2 3 4 5 6 7 8 9 10 11 12 13 14 15 16 17 18 19 20 21 22 23 24 25 26 27 28 29 30 31 32 33 34 35 36 37 38 39 40 41 42 43 44 45 46 47 48 49 50
000
ASUS45 KABQ 281801
RWRNM
WEATHER ROUNDUP FOR NEW MEXICO
NATIONAL WEATHER SERVICE ALBUQUERQUE NM
1100 AM MST SUN DEC 28 2014

NOTE: "FAIR" MEANS FEW OR NO CLOUDS BELOW 12,000 FEET AGL WITH NO
       SIGNIFICANT WEATHER OR OBSTRUCTIONS TO VISION.

      THIS PRODUCT IS RELEASED AS TWO VERSIONS.  ONE VERSION NEAR
      THE TOP OF THE HOUR CONTAINING PRELIMINARY DATA FROM ALBUQUERQUE
      AND OTHER STATIONS.  A FINAL VERSION WITH ADDITIONAL DATA IS
      ISSUED ABOUT 10 MINUTES AFTER THE HOUR.

NMZ501-503-504-510>518-281900-
NORTHWEST PLATEAU/NORTHCENTRAL MOUNTAINS

CITY           SKY/WX    TMP DP  RH WIND       PRES   REMARKS
FARMINGTON     MOSUNNY   20  11  68 E6        30.21R WCI  12
6HR MIN TEMP:   2; 6HR MAX TEMP:  20;

LOS ALAMOS     SUNNY     22   8  54 SE6       30.10S WCI  14
SANTA FE       SUNNY     27   8  44 N13       30.11F WCI  16
6HR MIN TEMP:  11; 6HR MAX TEMP:  27;

TAOS           SUNNY     16   7  67 CALM      30.10F
ANGEL FIRE     FAIR      20   6  55 SW6       30.00F WCI  12

$$
NMZ402-403-502-505>509-281900-
WESTCENTRAL MOUNTAINS/SOUTHWEST MOUNTAINS

CITY           SKY/WX    TMP DP  RH WIND       PRES   REMARKS
GALLUP         MOSUNNY   17  10  74 CALM      30.18F
6HR MIN TEMP:  -5; 6HR MAX TEMP:  17;

GRANTS         SUNNY     26  11  53 NW8       30.17F WCI  17

$$
NMZ407-409-411-412-281900-
SOUTHERN DESERTS

CITY           SKY/WX    TMP DP  RH WIND       PRES   REMARKS
LORDSBURG      FAIR      34  27  75 CALM      30.24F
DEMING         SUNNY     40  22  48 W9        30.23F WCI  34
6HR MIN TEMP:  16; 6HR MAX TEMP:  40;

HOLLOMAN AFB   SUNNY     34  24  66 CALM      30.22F
T OR C         SUNNY     35  11  36 CALM      30.20F
6HR MIN TEMP:  16; 6HR MAX TEMP:  35;


$$
NMZ519>523-281900-
CENTRAL VALLEYS/CENTRAL HIGHLANDS

CITY           SKY/WX    TMP DP  RH WIND       PRES   REMARKS
ALBUQUERQUE    MOSUNNY   29   9  43 CALM      30.19F
6HR MIN TEMP:  16; 6HR MAX TEMP:  31;

DOUBLE EAGLE   MOSUNNY   28   9  43 SW6       30.17F WCI  22
MORIARTY ARPT  FAIR      32  10  40 NW10      30.11F WCI  24
6HR MIN TEMP:   8; 6HR MAX TEMP:  32;

CLINES CORNERS SUNNY     23  11  60 NW24G35   30.01F WCI   7
6HR MIN TEMP:   9; 6HR MAX TEMP:  23;

BELEN          NOT AVBL
SOCORRO        FAIR      32  10  40 CALM      30.21F
6HR MIN TEMP:  12; 6HR MAX TEMP:  32;


$$
NMZ524>526-539-540-281900-
SOUTHCENTRAL MOUNTAINS

CITY           SKY/WX    TMP DP  RH WIND       PRES   REMARKS
RUIDOSO        NOT AVBL

$$
NMZ527>531-281900-
NORTHEAST HIGHLANDS/NORTHEAST PLAINS

CITY           SKY/WX    TMP DP  RH WIND       PRES   REMARKS
LAS VEGAS      SUNNY     33  10  38 S7        29.95F WCI  27
6HR MIN TEMP:  13; 6HR MAX TEMP:  33;

RATON          SUNNY     24  15  68 CALM      29.92F
6HR MIN TEMP:   0; 6HR MAX TEMP:  24;

CLAYTON        SUNNY     40  11  30 S12       29.93F WCI  33
6HR MIN TEMP:  15; 6HR MAX TEMP:  40;


$$
NMZ532>537-281900-
EASTCENTRAL PLAINS

CITY           SKY/WX    TMP DP  RH WIND       PRES   REMARKS
TUCUMCARI      SUNNY     33  19  56 SW9       29.99F WCI  25
6HR MIN TEMP:  10; 6HR MAX TEMP:  33; 6HR PCP: TRACE;

CANNON AFB     SUNNY     40   8  26 W25G37    30.01F WCI  29
6HR MIN TEMP:  14; 6HR MAX TEMP:  40;

CLOVIS AIRPORT SUNNY     41  10  28 W21G29    30.02F

$$
NMZ028-029-538-281900-
SOUTHEAST PLAINS

CITY           SKY/WX    TMP DP  RH WIND       PRES   REMARKS
ROSWELL        SUNNY     40  21  46 VRB5      30.11F
6HR MIN TEMP:  11; 6HR MAX TEMP:  40;

CARLSBAD       SUNNY     40  31  70 SE7       30.15F
6HR MIN TEMP:  26; 6HR MAX TEMP:  40;

HOBBS          SUNNY     41  28  60 SW10      30.14F


$$



USA.gov is the U.S. government's official web portal to all federal, state and local government web resources and services.